STARLINK-1893, 46786

Orbit data source: Space-Track

STARLINK-1893, 46786 is a payload satellite owned by SpaceX/Seattle (US) in LEO that was launched on Sat, 24 Oct 2020 UTC via an FALCON 9 launch vehicle from the Air Force Eastern Test Range (AFETR). Payload-class satellites include a variety of spacecraft equipped with specific instruments for various scientific and technological missions. These include communications satellites like Starlink; space stations such as the ISS; scientific satellites like the Hubble; Earth observation satellites from companies like Planet Labs, Umbra, and HawkEye 360; GPS; miniature CubeSats for education and research; and military/defense satellites.

Loading next visibility...
Identifier
46786, 2020-074AZ
Orbit
LEO
Country
Flag of USUS
Related business
Manufacturer
SpaceX/Seattle
Mission
Operational Commercial Communications
Bus & Motor
STARLINK, Unknown motor
Mass
260 kg wet, ~248 kg dry
Launch date (UTC)
2020-10-24 (5 years ago)
Launch vehicle
FALCON 9
Launch site
Air Force Eastern Test Range (AFETR)
Object type
Payload
Rocket body
Debris
Shape & HBR
Box + 1 Pan, 10.1 m
Radar Cross Section
13.562 m², Large (>1 m²)

Expand to show TLE details & history
Last TLE update: 18 hours ago

TLE from 18 hours ago
0 STARLINK-1893
1 46786U 20074AZ  25286.58021879  .00000512  00000-0  53238-4 0  9990
2 46786  53.0549 232.0152 0001823  98.5058 261.6138 15.06405501274921
Epoch: 2025-10-13T13:55Z
TLE epoch observation values (Epoch: 2025-10-13T13:55:30.903Z)
Latitude
0.00001°
Longitude
0.75548°
Altitude
548.258 km
Speed
7.589 km/s
True Right ascension
15h 28m 03s
True Declination
0° 00' 00"
Sunlit
Object was in daylight at epoch
Visualization orbit readout
Latitude
Unknown
Longitude
Unknown
Altitude
Unknown
Speed
Unknown
Apparent Right ascension
Unknown
Apparent Declination
Unknown
Sunlit
N/A
Visualization observer readout
Local Sidereal Time
02:42:09
Azimuth
Unknown
Elevation
Unknown
Doppler factor
Unknown
Orbital elements
Apogee altitude
548.728 km
Perigee altitude
546.203 km
Semi-major axis
6,925.602 km
Eccentricity
0.00018
Inclination
53.0549°
RAAN
232.0152°
Arg. of periapsis
98.5058°
True anomaly
261.59313°
Mean anomaly
261.6138°
Eccentric anomaly
261.60347°
Mean motion
3.7658 °/min
Orbital period
95.6 mins
BSTAR
0.000053238
Loading maneuver chart data...
Computing Atmospheric mass density...

Documentation

Showing up to 5 results
|